�������l�o���
Date,Time,MP-1(��Sv/h),MP-2(��Sv/h),MP-3(��Sv/h),MP-4(��Sv/h),MP-5(��Sv/h),MP-6(��Sv/h),MP-7(��Sv/h),MP-8(��Sv/h),����,����(m/s),���J
2021/02/04,00:00,0.663,0.955,0.607,1.209,0.850,0.377,0.669,0.630,�k�k��,0.6,��
2021/02/04,00:10,0.663,0.956,0.608,1.209,0.849,0.378,0.668,0.632,-,CALM,��
2021/02/04,00:20,0.663,0.956,0.607,1.208,0.850,0.378,0.669,0.631,�쓌,1.4,��
2021/02/04,00:30,0.663,0.956,0.609,1.209,0.849,0.378,0.669,0.632,�쓌,2.6,��
2021/02/04,00:40,0.665,0.954,0.608,1.210,0.850,0.380,0.669,0.629,��쓌,1.4,��
2021/02/04,00:50,0.664,0.956,0.608,1.209,0.849,0.378,0.668,0.632,��쓌,1.9,��
2021/02/04,01:00,0.665,0.955,0.609,1.208,0.850,0.378,0.670,0.630,��쐼,1.2,��
2021/02/04,01:10,0.665,0.954,0.608,1.205,0.848,0.378,0.669,0.630,���쐼,2.0,��
2021/02/04,01:20,0.664,0.953,0.608,1.207,0.850,0.378,0.669,0.631,��,5.2,��
2021/02/04,01:30,0.662,0.955,0.608,1.206,0.848,0.378,0.670,0.631,��,4.8,��
2021/02/04,01:40,0.663,0.954,0.609,1.209,0.848,0.379,0.669,0.631,��,5.3,��
2021/02/04,01:50,0.665,0.954,0.608,1.208,0.847,0.379,0.669,0.633,��,4.6,��
2021/02/04,02:00,0.665,0.955,0.607,1.207,0.851,0.379,0.671,0.631,���쐼,6.2,��
2021/02/04,02:10,0.664,0.952,0.608,1.208,0.849,0.377,0.671,0.632,��,8.6,��
2021/02/04,02:20,0.665,0.955,0.608,1.209,0.852,0.380,0.670,0.630,��,7.8,��
2021/02/04,02:30,0.665,0.956,0.607,1.210,0.849,0.379,0.671,0.631,��,9.9,��
2021/02/04,02:40,0.666,0.957,0.609,1.210,0.850,0.378,0.672,0.631,��,9.7,��
2021/02/04,02:50,0.666,0.955,0.609,1.209,0.851,0.380,0.671,0.632,���쐼,9.4,��
2021/02/04,03:00,0.666,0.956,0.609,1.210,0.850,0.378,0.672,0.632,��,8.7,��
2021/02/04,03:10,0.666,0.954,0.609,1.210,0.850,0.379,0.670,0.632,���쐼,6.4,��
2021/02/04,03:20,0.665,0.954,0.608,1.208,0.849,0.378,0.671,0.633,���쐼,6.4,��
2021/02/04,03:30,0.667,0.955,0.609,1.209,0.852,0.378,0.672,0.631,��,8.0,��
2021/02/04,03:40,0.668,0.956,0.610,1.211,0.850,0.380,0.670,0.632,��,6.9,��
2021/02/04,03:50,0.668,0.956,0.609,1.209,0.850,0.379,0.670,0.631,��,9.2,��
2021/02/04,04:00,0.666,0.956,0.609,1.210,0.851,0.378,0.671,0.632,��,7.4,��
2021/02/04,04:10,0.666,0.954,0.609,1.209,0.850,0.380,0.671,0.631,��,7.7,��
2021/02/04,04:20,0.665,0.954,0.608,1.211,0.851,0.379,0.670,0.632,���쐼,9.1,��
2021/02/04,04:30,0.665,0.953,0.609,1.209,0.852,0.379,0.671,0.632,���쐼,9.1,��
2021/02/04,04:40,0.667,0.955,0.610,1.211,0.851,0.377,0.672,0.632,���쐼,8.5,��
2021/02/04,04:50,0.665,0.954,0.607,1.207,0.850,0.379,0.671,0.631,���쐼,8.5,��
2021/02/04,05:00,0.665,0.956,0.610,1.209,0.847,0.377,0.670,0.632,��,6.6,��
2021/02/04,05:10,0.664,0.956,0.610,1.209,0.848,0.378,0.671,0.631,��,4.9,��
2021/02/04,05:20,0.666,0.953,0.609,1.209,0.849,0.379,0.669,0.632,���k��,3.9,��
2021/02/04,05:30,0.666,0.954,0.610,1.209,0.851,0.379,0.671,0.632,�k,3.7,��
2021/02/04,05:40,0.666,0.957,0.608,1.209,0.848,0.378,0.671,0.632,�k,5.9,��
2021/02/04,05:50,0.664,0.957,0.609,1.210,0.849,0.378,0.671,0.632,�k,6.5,��
2021/02/04,06:00,0.663,0.954,0.607,1.209,0.850,0.377,0.670,0.631,�k,5.7,��
2021/02/04,06:10,0.663,0.955,0.607,1.211,0.850,0.378,0.671,0.631,�k,6.1,��
2021/02/04,06:20,0.662,0.954,0.608,1.208,0.849,0.377,0.670,0.631,�k,5.4,��
2021/02/04,06:30,0.665,0.956,0.608,1.210,0.847,0.377,0.672,0.630,�k�k��,3.5,��
2021/02/04,06:40,0.663,0.955,0.607,1.209,0.849,0.377,0.670,0.632,�k��,1.9,��
2021/02/04,06:50,0.665,0.952,0.608,1.209,0.850,0.377,0.669,0.631,��,1.9,��
2021/02/04,07:00,0.664,0.956,0.608,1.208,0.849,0.377,0.670,0.631,��,3.2,��
2021/02/04,07:10,0.663,0.954,0.606,1.211,0.849,0.379,0.670,0.632,���k��,3.4,��
2021/02/04,07:20,0.663,0.956,0.607,1.207,0.850,0.379,0.670,0.630,�k��,3.0,��
2021/02/04,07:30,0.664,0.954,0.609,1.208,0.850,0.379,0.669,0.632,�k��,3.2,��
2021/02/04,07:40,0.662,0.955,0.606,1.207,0.849,0.378,0.671,0.632,�k,2.3,��
2021/02/04,07:50,0.665,0.954,0.608,1.209,0.848,0.378,0.670,0.630,�k�k��,2.6,��
2021/02/04,08:00,0.665,0.954,0.608,1.207,0.849,0.377,0.669,0.632,�k�k��,3.0,��
2021/02/04,08:10,0.663,0.955,0.608,1.208,0.849,0.377,0.672,0.633,�k,3.8,��
2021/02/04,08:20,0.666,0.953,0.609,1.208,0.850,0.377,0.671,0.634,�k�k��,3.8,��
2021/02/04,08:30,0.664,0.953,0.609,1.209,0.850,0.376,0.669,0.632,�k��,2.9,��
2021/02/04,08:40,0.665,0.954,0.608,1.208,0.849,0.378,0.671,0.631,�k�k��,2.5,��
2021/02/04,08:50,0.667,0.952,0.608,1.209,0.848,0.378,0.671,0.633,�k�k��,2.2,��
2021/02/04,09:00,0.665,0.953,0.608,1.209,0.849,0.378,0.671,0.631,�k�k��,1.4,��
2021/02/04,09:10,0.664,0.953,0.609,1.210,0.849,0.377,0.671,0.631,-,CALM,��
2021/02/04,09:20,0.665,0.954,0.610,1.208,0.851,0.378,0.673,0.630,���쐼,1.1,��
2021/02/04,09:30,0.664,0.953,0.609,1.209,0.850,0.380,0.672,0.632,�쓌,1.4,��
2021/02/04,09:40,0.666,0.954,0.609,1.211,0.849,0.379,0.671,0.635,�쓌,3.2,��
2021/02/04,09:50,0.666,0.954,0.609,1.209,0.851,0.379,0.672,0.631,�쓌,3.4,��
2021/02/04,10:00,0.667,0.953,0.609,1.209,0.850,0.380,0.671,0.633,��쓌,4.1,��
2021/02/04,10:10,0.666,0.950,0.611,1.209,0.850,0.379,0.671,0.631,��쓌,4.4,��
2021/02/04,10:20,0.668,0.953,0.611,1.209,0.850,0.382,0.670,0.633,��쓌,5.4,��
2021/02/04,10:30,0.668,0.952,0.609,1.208,0.852,0.381,0.672,0.632,��쓌,5.1,��
2021/02/04,10:40,0.667,0.952,0.610,1.210,0.852,0.381,0.673,0.634,��,5.8,��
2021/02/04,10:50,0.669,0.952,0.609,1.211,0.852,0.381,0.672,0.632,��쐼,8.0,��
2021/02/04,11:00,0.669,0.955,0.610,1.213,0.852,0.381,0.671,0.634,��,5.5,��
2021/02/04,11:10,0.670,0.954,0.611,1.210,0.852,0.382,0.672,0.632,��,8.4,��
2021/02/04,11:20,0.668,0.954,0.610,1.210,0.854,0.383,0.672,0.634,��쐼,9.6,��
2021/02/04,11:30,0.669,0.957,0.610,1.210,0.854,0.381,0.673,0.633,��쐼,9.8,��
2021/02/04,11:40,0.668,0.955,0.614,1.211,0.853,0.382,0.671,0.633,�쐼,9.5,��
2021/02/04,11:50,0.668,0.956,0.612,1.212,0.853,0.381,0.672,0.633,�쐼,10.2,��
2021/02/04,12:00,0.671,0.957,0.612,1.213,0.854,0.383,0.670,0.634,��쐼,10.7,��
2021/02/04,12:10,0.668,0.958,0.613,1.213,0.856,0.380,0.672,0.635,��쐼,11.0,��
2021/02/04,12:20,0.669,0.955,0.612,1.213,0.854,0.381,0.672,0.632,�쐼,9.2,��
2021/02/04,12:30,0.670,0.955,0.612,1.215,0.853,0.381,0.672,0.634,�쐼,10.2,��
2021/02/04,12:40,0.669,0.956,0.613,1.213,0.852,0.382,0.674,0.634,�쐼,10.6,��
2021/02/04,12:50,0.668,0.958,0.615,1.212,0.851,0.382,0.673,0.633,�쐼,13.5,��
2021/02/04,13:00,0.669,0.955,0.611,1.215,0.853,0.383,0.672,0.634,�쐼,11.8,��
2021/02/04,13:10,0.669,0.954,0.613,1.213,0.853,0.381,0.672,0.635,���쐼,10.2,��
2021/02/04,13:20,0.671,0.955,0.613,1.213,0.854,0.381,0.673,0.635,��,8.7,��
2021/02/04,13:30,0.669,0.954,0.613,1.214,0.853,0.382,0.674,0.634,���쐼,10.2,��
2021/02/04,13:40,0.668,0.952,0.613,1.214,0.854,0.383,0.672,0.633,���쐼,12.2,��
2021/02/04,13:50,0.670,0.953,0.614,1.212,0.854,0.382,0.672,0.632,��,10.6,��
2021/02/04,14:00,0.667,0.954,0.612,1.212,0.855,0.381,0.672,0.630,���k��,9.0,�L
2021/02/04,14:10,0.668,0.958,0.612,1.213,0.854,0.381,0.673,0.632,���k��,11.9,�L
2021/02/04,14:20,0.669,0.956,0.613,1.212,0.857,0.382,0.671,0.629,���쐼,11.4,�L
2021/02/04,14:30,0.670,0.957,0.611,1.213,0.856,0.380,0.669,0.632,��,12.1,��
2021/02/04,14:40,0.669,0.954,0.613,1.213,0.852,0.383,0.671,0.630,��,12.7,��
2021/02/04,14:50,0.668,0.957,0.615,1.214,0.853,0.381,0.673,0.632,���k��,9.9,�L
2021/02/04,15:00,0.669,0.960,0.611,1.214,0.856,0.380,0.671,0.633,�k��,11.9,�L
2021/02/04,15:10,0.667,0.958,0.612,1.212,0.854,0.379,0.673,0.634,�k��,11.1,�L
2021/02/04,15:20,0.666,0.958,0.611,1.215,0.856,0.379,0.672,0.633,�k��,9.3,�L
2021/02/04,15:30,0.669,0.959,0.610,1.213,0.855,0.380,0.673,0.634,�k��,11.6,��
2021/02/04,15:40,0.667,0.959,0.609,1.213,0.855,0.380,0.672,0.633,�k��,10.2,��
2021/02/04,15:50,0.667,0.961,0.609,1.214,0.856,0.380,0.673,0.633,�k��,7.8,��
2021/02/04,16:00,0.666,0.960,0.608,1.212,0.857,0.378,0.673,0.633,�k��,7.8,��
2021/02/04,16:10,0.667,0.958,0.608,1.215,0.854,0.379,0.673,0.632,�k��,7.2,��
2021/02/04,16:20,0.667,0.959,0.609,1.211,0.855,0.378,0.672,0.633,�k��,7.5,��
2021/02/04,16:30,0.665,0.959,0.610,1.216,0.855,0.378,0.673,0.631,�k��,7.2,��
2021/02/04,16:40,0.665,0.961,0.608,1.213,0.857,0.381,0.673,0.633,�k��,7.4,��
2021/02/04,16:50,0.667,0.959,0.612,1.213,0.855,0.380,0.672,0.633,�k��,5.3,��
2021/02/04,17:00,0.665,0.959,0.609,1.212,0.855,0.379,0.672,0.634,�k��,6.0,��
2021/02/04,17:10,0.667,0.960,0.610,1.211,0.853,0.380,0.670,0.634,�k��,6.6,��
2021/02/04,17:20,0.666,0.958,0.610,1.211,0.853,0.381,0.672,0.632,�k��,6.1,��
2021/02/04,17:30,0.666,0.960,0.611,1.212,0.853,0.379,0.671,0.633,�k�k��,5.8,��
2021/02/04,17:40,0.665,0.959,0.612,1.213,0.854,0.378,0.672,0.633,�k��,5.1,��
2021/02/04,17:50,0.665,0.960,0.611,1.214,0.854,0.379,0.672,0.632,�k�k��,4.8,��
2021/02/04,18:00,0.665,0.958,0.610,1.211,0.855,0.378,0.672,0.632,�k��,6.7,��
2021/02/04,18:10,0.663,0.960,0.610,1.211,0.853,0.380,0.673,0.632,�k��,8.5,��
2021/02/04,18:20,0.661,0.957,0.610,1.212,0.856,0.379,0.670,0.633,�k��,7.3,��
2021/02/04,18:30,0.663,0.957,0.610,1.211,0.855,0.379,0.671,0.633,�k��,6.5,��
2021/02/04,18:40,0.665,0.957,0.609,1.211,0.855,0.379,0.671,0.633,�k��,7.4,��
2021/02/04,18:50,0.666,0.959,0.611,1.211,0.854,0.378,0.671,0.633,�k��,7.2,��
2021/02/04,19:00,0.664,0.957,0.608,1.211,0.854,0.379,0.671,0.633,�k��,6.6,��
2021/02/04,19:10,0.665,0.958,0.607,1.210,0.855,0.378,0.671,0.632,�k��,6.5,��
2021/02/04,19:20,0.663,0.958,0.608,1.211,0.855,0.379,0.672,0.633,�k��,6.3,��
2021/02/04,19:30,0.663,0.957,0.607,1.211,0.855,0.378,0.672,0.633,�k��,5.6,��
2021/02/04,19:40,0.664,0.959,0.610,1.211,0.854,0.377,0.670,0.631,�k��,5.2,��
2021/02/04,19:50,0.663,0.961,0.609,1.212,0.854,0.379,0.670,0.630,�k��,4.6,��
2021/02/04,20:00,0.664,0.958,0.609,1.211,0.852,0.377,0.671,0.632,�k��,6.2,��
2021/02/04,20:10,0.664,0.958,0.611,1.212,0.853,0.379,0.671,0.631,�k��,4.8,��
2021/02/04,20:20,0.662,0.961,0.609,1.211,0.853,0.378,0.673,0.631,�k��,5.2,��
2021/02/04,20:30,0.663,0.959,0.609,1.212,0.853,0.379,0.671,0.632,�k��,5.2,��
2021/02/04,20:40,0.664,0.958,0.609,1.213,0.851,0.378,0.672,0.633,�k��,6.5,��
2021/02/04,20:50,0.665,0.959,0.610,1.212,0.851,0.379,0.671,0.631,�k��,6.2,��
2021/02/04,21:00,0.664,0.959,0.609,1.213,0.854,0.379,0.672,0.631,�k��,4.9,��
2021/02/04,21:10,0.664,0.959,0.609,1.211,0.852,0.380,0.671,0.633,�k��,3.7,��
2021/02/04,21:20,0.664,0.958,0.609,1.208,0.856,0.380,0.671,0.632,�k��,2.9,��
2021/02/04,21:30,0.666,0.960,0.611,1.211,0.853,0.380,0.671,0.631,�k��,4.0,��
2021/02/04,21:40,0.664,0.958,0.609,1.210,0.853,0.380,0.670,0.633,�k��,4.0,��
2021/02/04,21:50,0.663,0.957,0.608,1.211,0.852,0.378,0.671,0.633,�k��,3.0,��
2021/02/04,22:00,0.664,0.957,0.609,1.211,0.853,0.378,0.670,0.630,�k��,1.7,��
2021/02/04,22:10,0.663,0.958,0.608,1.210,0.853,0.378,0.670,0.632,�k�k��,4.7,��
2021/02/04,22:20,0.664,0.957,0.609,1.211,0.853,0.379,0.672,0.631,�k�k��,5.7,��
2021/02/04,22:30,0.665,0.959,0.609,1.213,0.853,0.379,0.669,0.632,�k��,5.4,��
2021/02/04,22:40,0.661,0.959,0.610,1.212,0.853,0.380,0.670,0.631,�k��,7.1,��
2021/02/04,22:50,0.666,0.959,0.609,1.211,0.853,0.377,0.669,0.632,�k��,6.2,��
2021/02/04,23:00,0.663,0.958,0.607,1.212,0.854,0.378,0.672,0.632,�k��,7.9,��
2021/02/04,23:10,0.665,0.956,0.608,1.210,0.854,0.380,0.673,0.632,�k��,6.8,��
2021/02/04,23:20,0.663,0.959,0.608,1.210,0.853,0.379,0.671,0.633,�k��,8.0,��
2021/02/04,23:30,0.663,0.958,0.608,1.211,0.853,0.378,0.670,0.633,�k��,8.9,��
2021/02/04,23:40,0.663,0.956,0.607,1.209,0.852,0.377,0.671,0.631,�k��,7.1,��
2021/02/04,23:50,0.664,0.957,0.606,1.211,0.853,0.377,0.669,0.632,�k��,8.2,��
